Hourly Data Report for October 05, 2014

All times are specified in Local Standard Time (LST). Add 1 hour to adjust for Daylight Saving Time where and when it is observed.

CAPE DORSET A
NUNAVUT

64°13'49.000" N
76°31'30.000" W
48.20 m
2400637
71366
YTE

Download Data

Hourly Data (October 2014)
Hourly Data Report for October 5, 2014
Temp Definition
°C
Dew Point Temp Definition
°C
Rel Hum Definition
%
Wind Dir Definition
10's deg

Wind Spd Definition
km/h
Visibility Definition
km
Stn Press Definition
kPa
Hmdx Definition


Wind Chill Definition


Weather Definition


TIME
00:00 Legend Double Dagger 0.7 -1.2 87 10 48 14.5 100.43     LegendNANA
01:00 Legend Double Dagger 0.1 LegendMM LegendMM 9 45 2.4 100.45     LegendNANA
02:00 Legend Double Dagger 0.2 LegendMM LegendMM 9 45 3.2 100.41     Freezing Rain
03:00 Legend Double Dagger 0.4 LegendMM LegendMM 8 43 4.0 100.39     LegendNANA
04:00 Legend Double Dagger 0.7 -0.3 93 9 45 8.1 100.35     Fog
05:00 Legend Double Dagger 0.8 -0.1 94 9 48 8.1 100.33     Fog
06:00 Legend Double Dagger 1.0 0.0 93 9 46 9.7 100.36     Fog
07:00 Legend Double Dagger 1.0 0.0 93 9 46 9.7 100.35     Fog
08:00 Legend Double Dagger 0.9 0.8 99 9 46 6.4 100.34     Fog
09:00 Legend Double Dagger 0.9 LegendMM LegendMM 9 46 4.0 100.26     LegendNANA
10:00 Legend Double Dagger 1.1 LegendMM LegendMM 9 48 4.8 100.24     Rain
11:00 Legend Double Dagger 1.3 LegendMM LegendMM 9 48 4.8 100.22     LegendNANA
12:00 Legend Double Dagger 1.3 LegendMM LegendMM 9 48 4.8 100.18     Rain
13:00 Legend Double Dagger 1.4 LegendMM LegendMM 9 46 4.8 100.19     Rain
14:00 Legend Double Dagger 1.4 LegendMM LegendMM 9 45 6.4 100.18     Rain
15:00 Legend Double Dagger 1.4 LegendMM LegendMM 9 48 8.1 100.16     Rain,Haze
16:00 Legend Double Dagger 1.5 LegendMM LegendMM 9 54 6.4 100.11     Haze
17:00 Legend Double Dagger 1.7 1.6 99 9 45 6.4 100.18     Fog
18:00 Legend Double Dagger 1.5 LegendMM LegendMM 8 37 4.8 100.20     LegendNANA
19:00 Legend Double Dagger 1.6 LegendMM LegendMM 9 43 4.8 100.16     LegendNANA
20:00 Legend Double Dagger 2.0 1.1 94 9 52 8.1 100.13     Fog
21:00 Legend Double Dagger 2.0 1.0 93 9 54 9.7 100.05     Fog
22:00 Legend Double Dagger 2.1 0.9 92 9 50 11.3 100.03     LegendNANA
23:00 Legend Double Dagger 2.5 0.9 89 9 46 14.5 100.04     LegendNANA

Notes on Data Quality.

Legend

  • E = Estimated
  • M = Missing
  • NA = Not Available
  • ‡ = Partner data that is not subject to review by the National Climate Archives
Date modified: